TEMPEST-D (43547 NORAD) Tracking and Keplerian Element Data

This shows tracking and keplerian element data for the satellite.

Feedback or suggestion? Click here.




ElementValue
Catalog43547
NameTEMPEST-D
Epoch Orbit521
Epoch Day230.56075047
Epoch Year2018
RAAN67.628
Inclination51.6427
Eccentricity0.0007291
Argument of Perigee72.2462
Mean Anonmoly287.9334
Mean Motion15.54891802
Decay Rate3.159E-05
L11 43547U 98067NV 18230.56075047 .00003159 00000-0 53511-4 0 9998
L22 43547 51.6427 67.6280 0007291 72.2462 287.9334 15.54891802 5218

Live tracking and technical data element details for TEMPEST-D (NORAD 43547). TEMPEST-D can be tracked NOW for your location showing map with azimuth and elevation plus other details from your city location.

Track the satellite on the map from your city or location and see movement details for azimuth, elevation, latitude, longitude, range, height, and movement on the map or in text.







IsCatalogInMostPopularTable: catalog: 43547, numindb: 14
Update: records affected: 1



GetName: 43547 TEMPEST-D

Hit Count: updated at: Mon, 20 Aug 2018 00:42:34 GMT